Regional Weather Roundup
Issued by NWS Sterling, VA

Home | Current Version | Previous Version | Graphics & Text | Print | Product List | Glossary On
Versions: 1 2 3 4 5 6 7 8 9 10 11 12 13 14 15 16 17 18 19 20 21 22 23 24 25 26 27 28 29 30 31 32 33 34 35 36 37 38 39 40 41 42 43 44 45 46 47 48 49 50
000
ASUS41 KLWX 292110
RWRLWX

REGIONAL WEATHER ROUNDUP
NATIONAL WEATHER SERVICE BALTIMORE MD/WASHINGTON DC
500 PM EDT FRI AUG 29 2014

Note: "FAIR" indicates few or no clouds below 12,000 feet
with no significant weather and/or obstructions to visibility.
 TC=TEMPERATURE CELSIUS

 * =Non NWS site. Station does not report precipitation (e.g. rain,
    snow, etc.), thunder, or fog.

DCZ001-MDZ009-015-VAZ040>042-051-053>054-292200-
WASHINGTON METRO
  /KDAA//-FT BELVOIR

CITY           SKY/WX    TMP DP  RH WIND       PRES   REMARKS
WASHINGTON NAT PTSUNNY   82  55  39 S7        30.15S
DULLES         PTSUNNY   77  57  50 E3        30.15S
ANDREWS AFB    SUNNY     76  57  51 E9        30.15S
QUANTICO       SUNNY     78  56  46 CALM      30.15F
COLLEGE PARK*  SUNNY     81  54  39 E6        30.15R
LEESBURG*      SUNNY     81  59  47 SW6       30.15F
MANASSAS*      SUNNY     79  54  41 SE5       30.15S
GAITHERSBURG*  SUNNY     75  55  50 NE7       30.19S

$$

MDZ006>007-011-014-292200-
BALTIMORE METRO

CITY           SKY/WX    TMP DP  RH WIND       PRES   REMARKS
BWI AIRPORT    PTSUNNY   76  50  40 E6        30.16S
MD SCIENCE CTR   N/A     77  51  40 MISG      30.17R
MARTIN STATE   MOSUNNY   77  55  47 E7        30.18S
ANNAPOLIS      SUNNY     75  55  49 E6        30.16S
FORT MEADE*    SUNNY     75  50  41 E7        30.18S

$$

MDZ012-015-019>023-292200-
MARYLAND EASTERN SHORE

CITY           SKY/WX    TMP DP  RH WIND       PRES   REMARKS
OCEAN CITY     MOSUNNY   76  61  59 NE9G20    30.17R
SALISBURY      SUNNY     80  57  45 NE7       30.16R
BAY BRIDGE AP*   N/A     75  54  46 N6        30.17R
CAMBRIDGE*     SUNNY     79  52  38 CALM      30.15S
EASTON*        SUNNY     82  55  39 SE3       30.19S

$$

MDZ017>025-292200-
SOUTHERN MARYLAND

CITY           SKY/WX    TMP DP  RH WIND       PRES   REMARKS
PATUXENT RIVER MOSUNNY   78  53  41 NE8       30.15F
ST INIGOES     SUNNY     79  53  40 E6        30.15S
LEONARDTOWN*   SUNNY     77  52  41 NE5       30.17S

$$

MDZ003>005-292200-
NORTH CENTRAL MARYLAND

CITY           SKY/WX    TMP DP  RH WIND       PRES   REMARKS
FREDERICK*     NOT AVBL
HAGERSTOWN APT SUNNY     77  53  43 E7        30.15F
WESTMINSTER*   SUNNY     79  52  38 E3        30.17S

$$

MDZ501>502-292200-
WESTERN MARYLAND

CITY           SKY/WX    TMP DP  RH WIND       PRES   REMARKS
OAKLAND*       SUNNY     73  57  56 SE7       30.20S
CUMBERLAND*    SUNNY     88  50  27 E5        30.15S

$$

VAZ025>031-292200-
SHENANDOAH VALLEY

CITY           SKY/WX    TMP DP  RH WIND       PRES   REMARKS
WINCHESTER*    SUNNY     77  55  47 E5        30.15S
STAUNTON*      SUNNY     80  59  47 SE9       30.16S

$$

WVZ021-048>050-054>055-292200-
EASTERN WEST VIRGINIA PANHANDLE

CITY           SKY/WX    TMP DP  RH WIND       PRES   REMARKS
MARTINSBURG    SUNNY     78  51  38 SE8       30.15F
PETERSBURG*    NOT AVBL

$$

VAZ036>039-050-292200-
CENTRAL FOOTHILLS

CITY           SKY/WX    TMP DP  RH WIND       PRES   REMARKS
CHARLOTTESVILL SUNNY     79  58  48 CALM      30.14F
ORANGE*        SUNNY     81  59  47 SE8       30.16S

$$

VAZ055>057-292200-
NORTH AND CENTRAL PIEDMONT

CITY           SKY/WX    TMP DP  RH WIND       PRES   REMARKS
FREDERICKSBRG* SUNNY     82  59  45 NE9       30.13S
STAFFORD*      SUNNY     79  59  50 E3        30.18F

$$

NCZ024-NYZ072-PAZ021-071-VAZ022-071-292200-
OTHER REGIONAL OBSERVATIONS

CITY           SKY/WX    TMP DP  RH WIND       PRES   REMARKS
NEW YORK CITY  SUNNY     76  51  41 S6        30.20R
PHILADELPHIA   PTSUNNY   79  51  37 S7        30.16S
PITTSBURGH     MOSUNNY   78  48  34 S3        30.11F
ROANOKE        MOSUNNY   78  62  57 E7        30.17S
RICHMOND       MOSUNNY   84  60  44 VRB6      30.13S
RALEIGH        CLOUDY    82  71  69 NE8       30.12S

$$

ANZ530>537-292200-
MARINE OBSERVATIONS

STATION/POSITION TIME  TEMP    WIND        PRES
                       AIR SEA DIR/SP/G
                 (UTC) (F)     (DEG/KT/KT) (MB)
THOMAS PT LIGHT  2100   73 78   30/  5/  5 1022.3F
BALT KEY BRIDGE  2100   81     130/  8/ 10 1021.1R
COVE POINT       2100   74      20/  8/  9 1021.1S
LEWISETTA        2100   75 78   90/  8/  9 1020.8R
SOLOMONS ISLAND  2100      81                N/A
PINEY POINT      2100          150/  7/  8   N/A

$$



USA.gov is the U.S. government's official web portal to all federal, state and local government web resources and services.